Home   Weather   Ciudad Juárez   Past weeks
Flag for Mexico

Past Weather in Ciudad Juárez, Chihuahua, Mexico — Yesterday and Last 2 Weeks

Now
73 °F

Sunny.


Feels Like: 76 °F
Forecast: 78 / 56 °F
Wind: 7 mph from South

Location: Ciudad Juarez International Airport

Current Time: Oct 19, 2019 at 1:50:16 pm

Latest Report: Oct 19, 2019 at 12:41 pm


Visibility: 10 mi

Pressure: 30.02 "Hg (26.35 "Hg at 1130m altitude)

Humidity: 25%

Dew Point: 36 °F

Location of Ciudad JuárezLocation

Past Weather in Ciudad Juárez — Graph

°F

Ciudad Juárez Temperature Yesterday

Maximum temperature yesterday: 81 °F (at 3:43 pm)
Minimum temperature yesterday: 63 °F (at 7:46 am)
Average temperature yesterday: 74 °F

High & Low Weather Summary for the Past Weeks

 TemperatureHumidityPressure
High86 °F (Oct 5, 3:44 pm)94% (Oct 15, 7:45 am)30.36 "Hg (Oct 15, 7:45 am)
Low48 °F (Oct 11, 7:48 am)14% (Oct 10, 1:42 pm)29.52 "Hg (Oct 18, 2:42 pm)
Average71 °F42%29.97 "Hg
* Reported Oct 4 11:42 am — Oct 19 11:40 am, Ciudad Juárez. Weather by CustomWeather, © 2019

Note: Actual official high and low records may vary slightly from our data, if they occured in-between our weather recording intervals... More about our weather records

Advertising

Ciudad Juárez Weather History for the Previous 24 Hours

Scroll right to see more
 ConditionsComfort  
Time TempWeatherWind HumidityBarometerVisibility
11:40 am
Sat, Oct 19
72 °FSunny.3 mph20%29.79 "Hg10 mi
10:42 am68 °FSunny.No wind26%30.06 "Hg10 mi
9:40 am66 °FSunny.No wind32%30.06 "Hg10 mi
9:16 am63 °FSunny.No wind37%30.05 "Hg10 mi
8:41 am57 °FSunny.5 mph44%29.81 "Hg10 mi
7:44 am55 °FSunny.5 mph47%30.02 "Hg10 mi
5:42 am55 °FClear.6 mph47%29.74 "Hg10 mi
9:44 pm
Fri, Oct 18
70 °FClear.17 mph31%29.91 "Hg10 mi
8:42 pm72 °FPassing clouds.14 mph31%29.62 "Hg10 mi
7:44 pm73 °FPassing clouds.12 mph31%29.87 "Hg10 mi
6:40 pm75 °FPassing clouds.14 mph31%29.85 "Hg10 mi
5:50 pm77 °FScattered clouds.12 mph30%29.55 "Hg10 mi
5:31 pm77 °FScattered clouds.14 mph30%29.84 "Hg10 mi
4:40 pm75 °FScattered clouds.15 mph34%29.84 "Hg8 mi
4:12 pm79 °FScattered clouds.17 mph28%29.82 "Hg8 mi
3:43 pm81 °FScattered clouds.17 mph28%29.82 "Hg10 mi
2:42 pm77 °FPartly sunny.14 mph32%29.52 "Hg10 mi
1:42 pm79 °FPartly sunny.18 mph28%29.84 "Hg10 mi
Weather by CustomWeather, © 2019

See weather overview